Wind_Speed
14 12 14 14 12 14 15 15 14 15 10 12 8 10 8 8 11 9 7 7 6 6 5 4 4 4 3 3 3 3 4 5 5 5 5 6 8 8 9 9 9 9 10
11 13 11 13 14 13 13 12 10 13 11 8 11 11 9 8 9 7 11 10 10 9 6 5 5 5 4 4 4 5 5 5 5 6 7 8 8 8 8 9 9 9 9
12 11 12 20 19 15 12 6 10 10 12 12 8 7 8 7 7 6 8 8 10 9 11 6 6 5 4 3 4 4 5 5 6 7 7 7 7 7 7 7 7 7 7
8 12 14 13 13 12 12 7 9 11 13 12 7 8 8 6 6 6 6 7 7 7 7 9 9 7 4 3 3 4 4 4 5 5 6 6 7 6 6 6 6 6 7
8 10 11 13 13 11 11 11 8 8 9 10 9 6 6 7 8 6 7 11 7 6 9 6 8 8 8 6 5 4 4 4 5 6 6 6 6 6 5 5 5 6 7
9 11 18 14 12 13 14 13 10 10 8 12 10 6 3 1 1 2 4 4 4 5 9 7 5 5 7 9 9 7 6 5 5 5 5 5 6 5 5 5 5 5 6
12 13 15 13 17 11 13 12 10 7 10 13 8 8 6 5 5 6 4 2 2 3 7 8 9 5 6 7 9 9 8 7 7 6 6 6 6 6 6 6 6 6 7
13 13 14 15 11 13 13 11 13 12 13 10 9 6 4 5 7 8 8 6 1 1 6 7 9 10 9 7 8 8 8 8 8 8 8 8 8 8 8 8 8 8 9
13 12 13 14 13 14 14 13 14 12 13 11 6 3 4 3 3 4 4 3 4 3 6 7 7 8 11 6 7 7 8 9 10 10 10 11 10 10 11 11 11 11 11
13 14 15 16 14 11 15 15 14 13 11 11 8 4 2 3 2 3 4 4 5 4 5 5 6 7 7 8 8 8 9 11 12 13 14 14 15 14 14 14 14 14 14
12 15 12 14 13 13 12 15 16 13 11 10 8 8 4 3 2 3 3 6 9 6 3 4 5 8 7 7 7 7 9 11 13 15 16 18 19 19 19 19 19 19 18
13 14 14 13 11 13 13 12 17 15 12 11 10 8 5 3 1 5 5 5 9 5 3 3 4 6 7 9 9 9 11 13 17 21 22 23 23 23 22 22 23 24 24
16 14 16 13 12 14 13 13 15 16 14 13 13 7 3 4 1 2 5 4 2 7 4 6 4 5 5 8 12 14 15 18 22 25 25 24 23 22 21 21 21 23 25
17 13 13 14 12 12 13 14 13 14 17 16 13 11 8 6 4 2 2 4 1 2 4 5 3 7 10 10 12 15 18 20 25 24 20 22 22 22 25 26 24 24 24
18 19 16 15 14 9 10 11 13 13 16 18 17 14 13 9 8 5 6 5 7 7 9 1 5 7 9 11 13 15 18 24 24 21 23 23 22 25 28 30 31 31 33
20 17 19 18 18 14 12 12 14 14 16 16 19 20 18 16 13 11 9 8 8 9 10 8 8 10 10 10 14 18 22 20 21 23 23 20 24 24 25 26 30 28 25
24 23 20 19 23 20 15 15 15 15 16 16 15 16 19 21 18 17 13 12 10 12 16 15 14 13 14 16 15 13 15 18 21 20 20 27 26 26 32 27 21 25 28
30 29 27 22 23 24 19 16 16 17 17 17 15 14 16 20 21 22 20 16 15 15 17 19 16 16 18 17 18 14 15 17 17 26 27 31 30 23 22 21 20 19 14
34 33 33 30 24 25 23 18 16 17 18 19 17 17 15 17 19 18 20 23 20 18 19 22 23 24 24 22 19 17 17 19 27 26 25 24 20 19 16 17 18 13 18
42 38 35 35 31 29 27 23 19 17 19 21 22 21 19 19 19 20 19 18 19 22 22 23 26 26 25 21 20 21 26 28 25 24 23 18 18 16 16 17 16 17 20
47 45 43 39 35 33 31 30 27 24 21 21 23 25 24 22 22 21 21 21 20 21 21 22 24 23 23 23 24 26 28 25 27 28 22 20 19 19 20 21 17 18 18
51 50 49 45 42 40 36 33 30 28 25 24 24 24 25 25 25 24 23 23 22 22 22 22 23 24 24 23 20 20 23 27 32 26 30 21 22 21 21 18 13 11 24
47 52 53 51 48 46 45 41 37 33 30 29 27 26 26 26 25 25 25 24 24 23 23 22 23 24 24 20 21 24 27 30 30 25 24 24 21 22 19 12 8 22 27
43 47 49 53 52 50 47 45 42 39 36 33 31 28 26 24 24 23 23 24 25 25 24 23 25 25 25 22 24 27 31 31 28 20 20 25 20 23 18 11 10 26 27
41 42 45 46 49 50 48 46 44 43 41 39 35 32 30 27 24 22 24 25 25 25 23 25 26 26 26 26 28 30 27 25 26 18 17 20 23 22 17 9 17 27 25
41 38 41 44 45 45 45 43 41 42 42 41 39 37 35 33 30 27 28 29 30 28 25 26 27 27 26 26 23 22 21 24 22 23 18 21 23 16 12 7 24 26 26
Wind_Direction
145 162 142 142 125 139 126 121 120 114 104 112 111 123 134 98 63 64 80 92 87 77 67 64 61 61 53 45 37 33 28 25 22 13 7 354 352 350 348 348 346 344 348
151 146 141 142 131 131 127 123 130 108 118 120 107 112 119 81 60 78 74 78 74 63 59 61 55 44 36 25 11 10 7 359 353 345 343 340 341 344 346 345 342 347 357
158 147 133 141 132 140 132 121 142 138 121 125 127 124 98 92 64 94 70 83 67 58 52 64 56 46 33 13 354 338 334 328 327 328 328 331 333 339 345 346 350 1 11
169 140 153 156 153 150 147 124 148 136 137 154 139 103 119 99 68 99 77 69 56 55 58 70 63 54 46 18 350 339 335 327 323 327 335 337 340 347 349 356 4 8 15
151 176 158 154 160 164 159 141 142 171 168 150 164 127 113 103 78 91 86 88 82 63 62 87 51 46 46 42 28 15 4 358 358 353 352 348 350 355 3 7 10 10 11
155 146 155 168 161 154 165 156 136 157 149 138 161 171 163 130 204 69 68 88 92 63 60 63 49 44 43 42 38 36 32 27 21 18 10 5 4 1 359 359 359 357 359
167 160 163 149 153 163 165 167 151 165 176 172 166 191 220 251 250 273 284 329 67 73 41 38 40 36 31 30 44 43 39 35 32 23 14 6 358 353 346 339 341 337 339
177 176 177 159 170 183 170 160 162 167 148 160 170 195 228 225 254 268 283 257 333 271 12 23 30 36 38 38 45 41 38 32 22 11 2 354 349 343 336 328 323 321 322
171 178 185 175 170 180 196 189 173 167 161 164 191 222 189 227 205 241 224 236 240 305 343 336 4 7 32 34 39 43 41 31 19 5 354 347 341 334 328 324 318 315 313
175 185 180 184 180 188 190 191 188 191 181 165 176 165 134 200 237 250 258 235 249 291 326 342 25 20 25 33 31 27 27 23 11 359 350 341 334 330 324 319 315 313 311
181 190 197 197 192 186 177 191 194 191 192 174 182 208 228 196 244 336 316 248 246 240 252 267 12 22 19 24 24 12 7 3 355 348 340 332 326 321 319 317 315 312 309
193 197 203 196 209 208 200 198 201 209 198 193 195 213 236 251 75 3 329 276 246 239 251 251 311 4 23 24 16 8 1 355 350 346 341 336 330 324 317 316 315 312 307
212 205 194 198 199 204 203 201 199 201 203 204 203 210 213 215 200 34 37 80 344 249 275 284 313 325 343 344 352 350 345 339 340 343 342 340 338 333 325 321 320 318 316
222 212 202 207 203 205 205 205 205 205 207 207 205 208 204 199 206 228 358 358 322 19 331 274 330 327 304 304 314 319 324 327 335 338 340 337 335 330 326 322 321 317 315
224 215 209 200 202 204 203 207 205 210 206 208 213 219 210 204 217 242 258 283 307 303 320 343 256 308 327 303 296 305 312 328 326 328 328 328 327 326 325 323 323 322 319
216 216 226 221 217 219 220 220 213 210 212 211 218 224 224 221 230 235 249 245 272 285 285 278 259 288 298 310 308 301 308 314 319 319 318 320 321 320 321 321 320 324 322
219 226 228 239 230 226 232 230 221 213 212 208 210 223 225 223 229 228 237 240 253 271 273 274 280 279 288 296 304 306 307 311 315 318 318 322 321 320 320 323 326 326 326
225 229 233 237 229 229 233 237 229 223 217 211 205 217 220 224 227 230 235 241 250 257 270 278 281 283 291 300 308 300 301 311 312 316 318 322 321 327 329 325 328 330 333
225 229 235 236 228 225 232 235 239 235 232 231 226 227 227 227 231 235 237 244 251 256 263 273 281 289 292 301 303 297 304 304 310 314 324 330 334 336 345 336 332 333 329
227 229 233 236 236 235 239 241 241 246 244 241 241 241 238 239 247 246 252 255 257 260 265 271 277 284 289 298 299 306 307 310 316 324 332 335 343 348 344 344 342 335 326
230 233 235 236 235 234 240 244 247 251 251 249 245 244 244 245 244 246 253 257 261 264 267 272 279 284 288 296 302 308 308 313 322 328 336 342 344 350 351 353 339 320 332
234 233 233 237 238 239 239 243 247 251 252 253 252 249 250 251 251 253 255 260 262 264 270 275 280 284 291 300 306 304 306 316 321 335 329 338 347 348 352 345 328 342 338
237 237 237 237 238 239 242 245 247 249 252 254 255 255 253 252 253 253 254 256 258 260 264 272 275 279 289 295 299 302 308 310 313 324 328 333 346 347 354 330 327 345 342
239 236 237 239 240 241 242 245 246 248 253 252 253 256 257 253 252 254 258 260 260 259 253 259 268 275 281 288 291 299 302 303 308 323 331 324 343 341 350 327 331 345 344
244 238 235 239 240 241 243 245 247 248 249 251 249 250 252 254 255 255 260 262 262 262 261 262 267 272 278 285 292 293 296 303 308 319 331 324 332 332 344 333 338 341 342
248 245 241 239 242 243 244 245 245 246 248 249 251 249 249 252 256 258 259 263 265 266 270 271 272 275 278 279 282 283 296 298 296 303 323 313 321 331 335 326 330 337 340
Height
1592 1594 1596 1597 1597 1598 1599 1600 1601 1601 1602 1601 1601 1602 1603 1604 1603 1603 1603 1603 1602 1602 1602 1602 1602 1602 1602 1602 1601 1600 1600 1599 1598 1597 1596 1594 1593 1592 1590 1588 1587 1585 1583
1593 1594 1595 1597 1598 1599 1600 1601 1602 1601 1602 1602 1602 1603 1604 1604 1605 1605 1605 1605 1604 1603 1603 1603 1603 1603 1603 1602 1602 1601 1601 1600 1599 1598 1596 1595 1593 1592 1590 1589 1587 1586 1584
1593 1594 1595 1597 1599 1600 1601 1602 1603 1603 1603 1602 1604 1605 1605 1606 1606 1607 1607 1606 1606 1606 1605 1604 1604 1603 1603 1602 1602 1602 1601 1600 1599 1598 1596 1595 1593 1592 1590 1589 1588 1586 1584
1594 1594 1596 1597 1599 1601 1601 1602 1603 1604 1605 1605 1606 1606 1607 1608 1608 1608 1608 1608 1607 1607 1606 1606 1605 1604 1603 1603 1602 1602 1601 1600 1599 1598 1596 1595 1594 1592 1591 1590 1589 1587 1585
1594 1595 1596 1597 1599 1600 1602 1603 1604 1605 1606 1607 1608 1608 1609 1609 1609 1610 1609 1609 1609 1608 1607 1607 1607 1606 1604 1603 1602 1602 1601 1600 1599 1598 1597 1595 1594 1593 1592 1591 1589 1587 1586
1595 1595 1596 1598 1600 1601 1603 1605 1605 1605 1606 1608 1609 1609 1610 1610 1610 1611 1611 1610 1610 1610 1609 1608 1607 1606 1605 1604 1603 1602 1601 1600 1599 1598 1597 1596 1595 1594 1593 1591 1590 1588 1587
1595 1596 1598 1599 1600 1602 1604 1605 1605 1605 1606 1608 1610 1610 1610 1611 1610 1610 1610 1610 1610 1610 1609 1609 1607 1606 1606 1605 1604 1603 1602 1601 1600 1600 1599 1597 1595 1594 1593 1592 1590 1589 1587
1594 1595 1597 1599 1600 1602 1603 1605 1606 1605 1607 1608 1610 1610 1610 1611 1609 1609 1609 1609 1610 1610 1610 1610 1609 1607 1606 1606 1605 1604 1603 1602 1601 1600 1599 1597 1596 1594 1593 1591 1590 1589 1587
1594 1595 1597 1599 1599 1602 1603 1605 1605 1606 1607 1609 1610 1610 1610 1609 1609 1609 1609 1609 1609 1610 1610 1610 1609 1608 1608 1607 1606 1605 1604 1603 1602 1601 1599 1598 1596 1594 1592 1591 1589 1588 1587
1593 1595 1596 1598 1599 1600 1602 1603 1604 1606 1607 1608 1609 1609 1609 1610 1609 1609 1609 1609 1609 1610 1610 1610 1609 1609 1609 1608 1607 1606 1605 1604 1603 1601 1600 1598 1596 1594 1592 1590 1589 1587 1586
1592 1594 1595 1597 1598 1599 1600 1602 1603 1605 1606 1608 1608 1609 1609 1610 1610 1610 1609 1609 1609 1609 1609 1609 1609 1609 1608 1608 1608 1607 1606 1604 1603 1601 1599 1596 1595 1593 1590 1589 1587 1586 1584
1592 1593 1594 1595 1597 1598 1599 1601 1602 1604 1605 1607 1608 1608 1609 1610 1610 1610 1609 1608 1609 1609 1609 1609 1609 1609 1609 1609 1608 1607 1606 1604 1602 1599 1596 1595 1592 1590 1588 1586 1584 1582 1581
1590 1591 1593 1594 1595 1596 1597 1599 1600 1602 1603 1605 1607 1608 1609 1610 1610 1610 1610 1609 1608 1609 1610 1609 1609 1609 1609 1608 1607 1606 1605 1603 1600 1597 1594 1592 1591 1586 1584 1583 1581 1579 1577
1589 1590 1591 1593 1595 1596 1597 1597 1598 1600 1602 1604 1605 1607 1608 1609 1610 1610 1610 1609 1609 1609 1610 1608 1609 1608 1608 1607 1606 1605 1603 1601 1598 1596 1594 1592 1589 1585 1582 1579 1577 1575 1572
1588 1589 1590 1592 1593 1594 1596 1597 1597 1598 1599 1601 1603 1605 1607 1608 1609 1609 1609 1609 1609 1609 1609 1609 1608 1608 1607 1605 1605 1604 1602 1600 1597 1595 1592 1590 1587 1583 1580 1576 1573 1570 1567
1585 1587 1589 1590 1592 1593 1594 1595 1596 1596 1597 1599 1601 1603 1605 1606 1608 1608 1608 1608 1608 1608 1608 1608 1608 1607 1606 1605 1604 1602 1600 1598 1595 1592 1589 1586 1583 1579 1575 1572 1568 1565 1561
1582 1584 1586 1587 1589 1591 1592 1593 1594 1595 1596 1598 1599 1600 1601 1603 1605 1606 1606 1607 1607 1606 1606 1606 1605 1605 1604 1603 1602 1600 1598 1595 1592 1589 1586 1582 1578 1574 1570 1566 1563 1560 1557
1578 1581 1583 1584 1586 1588 1589 1590 1592 1593 1593 1594 1596 1597 1598 1600 1601 1603 1603 1604 1604 1605 1604 1602 1602 1602 1602 1601 1599 1596 1594 1592 1589 1586 1582 1578 1573 1569 1565 1562 1559 1556 1553
1574 1576 1578 1580 1582 1584 1586 1587 1588 1590 1590 1591 1593 1594 1595 1596 1597 1599 1600 1601 1601 1601 1601 1600 1599 1599 1597 1597 1594 1593 1591 1589 1586 1583 1579 1574 1570 1566 1563 1559 1556 1552 1549
1570 1571 1573 1575 1577 1580 1582 1584 1585 1586 1588 1588 1589 1590 1592 1593 1594 1595 1596 1597 1597 1597 1597 1596 1595 1595 1593 1592 1591 1589 1587 1585 1580 1579 1575 1571 1567 1564 1561 1557 1553 1549 1544
1563 1566 1568 1570 1571 1574 1576 1578 1580 1583 1584 1584 1585 1585 1586 1588 1589 1591 1592 1592 1593 1592 1592 1592 1590 1590 1589 1588 1587 1585 1582 1580 1577 1574 1570 1567 1563 1560 1557 1553 1549 1543 1541
1555 1559 1561 1563 1565 1567 1570 1572 1575 1577 1578 1579 1579 1580 1581 1582 1583 1585 1586 1587 1588 1588 1587 1587 1586 1585 1584 1584 1583 1581 1578 1574 1571 1570 1565 1562 1560 1557 1553 1550 1544 1542 1540
1546 1548 1552 1555 1557 1560 1563 1567 1570 1571 1572 1573 1573 1574 1575 1576 1577 1578 1579 1580 1581 1581 1582 1582 1581 1581 1580 1579 1578 1576 1574 1571 1568 1565 1563 1559 1558 1554 1551 1546 1544 1541 1537
1535 1538 1542 1545 1548 1551 1555 1559 1562 1565 1565 1565 1566 1568 1568 1570 1571 1572 1573 1574 1574 1575 1575 1576 1575 1574 1575 1574 1573 1571 1568 1566 1564 1561 1559 1555 1554 1552 1549 1544 1542 1539 1534
1526 1529 1532 1536 1537 1541 1545 1549 1554 1556 1556 1556 1558 1560 1561 1563 1564 1567 1568 1567 1567 1567 1569 1569 1569 1569 1569 1569 1568 1565 1562 1561 1557 1557 1556 1552 1550 1547 1545 1542 1540 1537 1532
1518 1522 1524 1525 1528 1531 1534 1539 1544 1546 1547 1548 1549 1551 1553 1554 1557 1560 1561 1560 1559 1559 1561 1562 1562 1562 1561 1561 1561 1559 1558 1555 1554 1552 1551 1549 1546 1544 1542 1539 1538 1535 1530